Weather History for Kuala Lumpur, Malaysia

Change the Weather History Date:

Friday, October 12, 2012

  Actual Average Record
Temperature  
Mean Temperature 84 °F -  
Max Temperature 92 °F - - ()
Min Temperature 75 °F - - ()
Cooling Degree Days 18    
Growing Degree Days 34 (Base 50)    
Moisture  
Dew Point 75 °F    
Average Humidity 86    
Maximum Humidity 100    
Minimum Humidity 62    
Precipitation  
Precipitation 0.04 in - - ()
Sea Level Pressure  
Sea Level Pressure 29.81 in    
Wind  
Wind Speed 4 mph ()    
Max Wind Speed 17 mph    
Max Gust Speed -    
Visibility 5.8 miles    
Events Rain , Thunderstorm    
T = Trace of Precipitation, MM = Missing Value Source: Averaged Metar Reports

Daily Weather History Graph

Daily Weather History Graph

Search for Another Location

Airport:

Trip Planner

Search our weather history database for the weather conditions in past years. The results will help you decide how hot, cold, wet, or windy it might be!

Date:

Astronomy

Oct. 12, 2012 Rise Set
Actual Time 6:57 AM MYT 7:01 PM MYT
Civil Twilight 6:36 AM MYT 7:22 PM MYT
Nautical Twilight 6:12 AM MYT 7:46 PM MYT
Astronomical Twilight 5:48 AM MYT 8:10 PM MYT
Moon 3:51 AM MYT (10/12) 4:16 PM MYT (10/12)
Length of Visible Light 12h 45m
Length of Day
12h 03m
Waning Crescent, 14% of the Moon is Illuminated
Oct 12
Waning Crescent
Oct 15
New
Oct 22
First Quarter
Oct 30
Full
Nov 7
Last Quarter

Hourly Weather History & Observations

Time (MYT) Temp. Heat Index Dew Point Humidity Pressure Visibility Wind Dir Wind Speed Gust Speed Precip Events Conditions
12:00 AM 75.2 °F - 73.4 °F 94% 29.83 in 6.2 mi NNW 3.5 mph - N/A   Mostly Cloudy
12:30 AM 77.0 °F - 73.4 °F 89% 29.83 in 6.2 mi NNE 4.6 mph - N/A   Mostly Cloudy
1:00 AM 77.0 °F - 73.4 °F 89% 29.80 in 6.2 mi NNE 5.8 mph - N/A   Mostly Cloudy
1:30 AM 77.0 °F - 73.4 °F 89% 29.80 in 6.2 mi NE 5.8 mph - N/A   Mostly Cloudy
2:00 AM 78 °F - 77 °F 94% 29.83 in 3 mi North 1.2 mph - -   Mist
2:00 AM 77.0 °F - 73.4 °F 89% 29.80 in 6.2 mi NNW 2.3 mph - N/A   Mostly Cloudy
2:30 AM 77.0 °F - 73.4 °F 89% 29.80 in 6.2 mi NNW 3.5 mph - N/A   Mostly Cloudy
3:00 AM 77.0 °F - 73.4 °F 89% 29.80 in 6.2 mi NNW 2.3 mph - N/A   Mostly Cloudy
3:30 AM 75.2 °F - 73.4 °F 94% 29.77 in 6.2 mi NNW 1.2 mph - N/A   Mostly Cloudy
4:00 AM 75.2 °F - 73.4 °F 94% 29.77 in 6.2 mi NE 1.2 mph - N/A   Mostly Cloudy
4:30 AM 75.2 °F - 73.4 °F 94% 29.80 in 6.2 mi NE 2.3 mph - N/A   Mostly Cloudy
5:00 AM 77 °F - 76 °F 95% 29.81 in 3 mi Calm Calm - -   Mist
5:00 AM 75.2 °F - 73.4 °F 94% 29.80 in 6.2 mi NNE 3.5 mph - N/A   Mostly Cloudy
5:30 AM 75.2 °F - 73.4 °F 94% 29.80 in 6.2 mi North 1.2 mph - N/A   Mostly Cloudy
6:00 AM 75.2 °F - 73.4 °F 94% 29.80 in 6.2 mi ESE 2.3 mph - N/A   Mostly Cloudy
6:30 AM 75.2 °F - 73.4 °F 94% 29.80 in 6.2 mi SE 3.5 mph - N/A   Mostly Cloudy
7:00 AM 75.2 °F - 73.4 °F 94% 29.80 in 6.2 mi Calm Calm - N/A   Mostly Cloudy
7:30 AM 75.2 °F - 73.4 °F 94% 29.83 in 6.2 mi North 3.5 mph - N/A   Mostly Cloudy
8:00 AM 77 °F - 76 °F 96% 29.86 in 3 mi ENE 1.2 mph - -   Mist
8:00 AM 77.0 °F - 73.4 °F 89% 29.83 in 6.2 mi NNE 2.3 mph - N/A   Mostly Cloudy
8:30 AM 78.8 °F - 73.4 °F 83% 29.83 in 6.2 mi NNE 3.5 mph - N/A   Mostly Cloudy
9:00 AM 80.6 °F 86.2 °F 75.2 °F 84% 29.86 in 6.2 mi North 2.3 mph - N/A   Mostly Cloudy
9:30 AM 82.4 °F 90.9 °F 77.0 °F 84% 29.86 in 6.2 mi ENE 2.3 mph - N/A   Mostly Cloudy
10:00 AM 84.2 °F 94.1 °F 77.0 °F 79% 29.86 in 6.2 mi NE 2.3 mph - N/A   Mostly Cloudy
10:30 AM 86.0 °F 95.1 °F 75.2 °F 70% 29.86 in 6.2 mi WNW 3.5 mph - N/A   Mostly Cloudy
11:00 AM 86.0 °F 95.1 °F 75.2 °F 70% 29.86 in 6.2 mi NW 4.6 mph - N/A   Mostly Cloudy
11:30 AM 87.8 °F 97.6 °F 75.2 °F 66% 29.86 in 6.2 mi WSW 3.5 mph - N/A   Mostly Cloudy
12:00 PM 87.8 °F 99.7 °F 77.0 °F 70% 29.83 in 6.2 mi WSW 3.5 mph - N/A   Mostly Cloudy
12:30 PM 89.6 °F 102.2 °F 77.0 °F 66% 29.83 in 6.2 mi West 4.6 mph - N/A   Mostly Cloudy
1:00 PM 89.6 °F 102.2 °F 77.0 °F 66% 29.80 in 6.2 mi SW 3.5 mph - N/A   Mostly Cloudy
1:30 PM 89.6 °F 99.8 °F 75.2 °F 62% 29.80 in 6.2 mi SW 4.6 mph - N/A   Mostly Cloudy
2:00 PM 92 °F - 81 °F 63% 29.79 in 9 mi WSW 5.8 mph - -   Haze
2:00 PM 91.4 °F 107.2 °F 78.8 °F 66% 29.77 in 6.2 mi SSW 5.8 mph - N/A   Mostly Cloudy
2:30 PM 89.6 °F 104.7 °F 78.8 °F 70% 29.74 in 6.2 mi SW 5.8 mph - N/A   Mostly Cloudy
3:00 PM 89.6 °F 102.2 °F 77.0 °F 66% 29.74 in 6.2 mi SW 8.1 mph - N/A   Mostly Cloudy
3:30 PM 89.6 °F 104.7 °F 78.8 °F 70% 29.71 in 6.2 mi SW 10.4 mph - N/A   Mostly Cloudy
4:00 PM 87.8 °F 99.7 °F 77.0 °F 70% 29.74 in 5.0 mi SW 8.1 mph - N/A Thunderstorm Thunderstorm
4:30 PM 86.0 °F 96.9 °F 77.0 °F 74% 29.74 in 5.0 mi SSW 5.8 mph - N/A Thunderstorm Thunderstorm
5:00 PM 78 °F - 76 °F 93% 29.78 in 5 mi NNE 3.5 mph - - Rain , Thunderstorm Thunderstorms and Rain
5:00 PM 84.2 °F 94.1 °F 77.0 °F 79% 29.74 in 4.3 mi WSW 3.5 mph - N/A Thunderstorm Thunderstorm
5:30 PM 77.0 °F - 75.2 °F 94% 29.77 in 3.1 mi NNE 15.0 mph - N/A Rain , Thunderstorm Heavy Thunderstorms and Rain
6:00 PM 75.2 °F - 73.4 °F 94% 29.77 in 0.3 mi NE 17.3 mph - N/A Rain , Thunderstorm Heavy Thunderstorms and Rain
6:30 PM 75.2 °F - 73.4 °F 94% 29.77 in 5.6 mi NNW 4.6 mph - N/A Rain Light Rain
7:00 PM 75.2 °F - 73.4 °F 94% 29.77 in 6.2 mi NNW 4.6 mph - N/A   Mostly Cloudy
7:30 PM 75.2 °F - 73.4 °F 94% 29.80 in 6.2 mi NNE 5.8 mph - N/A   Mostly Cloudy
8:00 PM 78 °F - 76 °F 93% 29.82 in 6 mi ENE 1.2 mph - - Thunderstorm Light Thunderstorm
8:00 PM 75.2 °F - 73.4 °F 94% 29.80 in 6.2 mi NE 6.9 mph - N/A   Mostly Cloudy
8:30 PM 75.2 °F - 73.4 °F 94% 29.80 in 6.2 mi NNE 4.6 mph - N/A   Mostly Cloudy
9:00 PM 75.2 °F - 75.2 °F 100% 29.83 in 6.2 mi North 3.5 mph - N/A   Mostly Cloudy
9:30 PM 75.2 °F - 75.2 °F 100% 29.83 in 6.2 mi North 2.3 mph - N/A   Mostly Cloudy
10:00 PM 77.0 °F - 73.4 °F 89% 29.86 in 6.2 mi NE 5.8 mph - N/A   Mostly Cloudy
10:30 PM 77.0 °F - 75.2 °F 94% 29.86 in 6.2 mi NE 1.2 mph - N/A   Mostly Cloudy
11:00 PM 79 °F - 77 °F 91% 29.89 in 6 mi North 1.2 mph - -   Haze
11:00 PM 77.0 °F - 75.2 °F 94% 29.86 in 6.2 mi ESE 1.2 mph - N/A   Mostly Cloudy
11:30 PM 77.0 °F - 75.2 °F 94% 29.86 in 6.2 mi NNE 3.5 mph - N/A   Mostly Cloudy